Location: Ballingbuur
(53.0000°N, 5.7667°E)
Time: 21:09:35
(UTC+00:00)

Cosmos 2184 Rocket - Pass Details

Date: 29 November 2020
Orbit: 958 x 1003 km, 82.9° (Epoch: 24 January)

Event Time Altitude Azimuth Distance (km) Brightness Sun altitude
Rises 05:47:43 0° 206° (SSW) 3,690 6.9 -13.8°
Reaches altitude 10° 05:50:17 10° 211° (SSW) 2,752 6.2 -13.5°
Maximum altitude 05:56:27 53° 287° (WNW) 1,217 4.1 -12.6°
Drops below altitude 10° 06:02:43 10° 4° (N) 2,788 6.2 -11.7°
Sets 06:05:21 0° 10° (N) 3,744 6.9 -11.3°
